Total_Precipitation_Accumulation
1.11 1.29 1.30 1.18 1.14 1.16 1.24 1.38 1.52 1.41 1.29 1.19 1.08 1.02 1.05 1.11 1.10 0.97 0.88 0.91 0.82 0.71 0.65 0.64 0.66 0.70 0.74 0.75 0.79 0.87 0.94 1.00 1.12 1.29 1.55 1.86 2.11 2.40
1.38 1.48 1.46 1.38 1.36 1.29 1.32 1.40 1.50 1.56 1.39 1.10 1.05 1.02 0.98 0.86 0.93 0.85 0.79 0.86 0.75 0.69 0.68 0.66 0.64 0.67 0.68 0.68 0.64 0.66 0.70 0.72 0.75 0.80 0.89 1.05 1.23 1.48
1.54 1.64 1.67 1.72 1.70 1.53 1.47 1.43 1.45 1.55 1.41 1.13 1.07 1.05 0.95 0.83 0.82 0.78 0.74 0.73 0.70 0.74 0.68 0.63 0.60 0.58 0.61 0.63 0.63 0.63 0.64 0.64 0.66 0.70 0.74 0.80 0.84 0.92
1.65 1.85 1.86 1.81 1.70 1.57 1.58 1.51 1.48 1.58 1.51 1.33 1.29 1.22 1.13 1.00 0.92 0.87 0.76 0.74 0.77 0.89 0.81 0.70 0.64 0.61 0.58 0.57 0.57 0.60 0.64 0.66 0.66 0.68 0.71 0.73 0.73 0.72
1.71 1.77 1.77 1.83 1.75 1.66 1.58 1.53 1.51 1.63 1.70 1.58 1.59 1.54 1.39 1.25 1.17 1.05 0.93 0.91 0.80 0.81 0.82 0.75 0.71 0.66 0.64 0.63 0.63 0.62 0.59 0.58 0.60 0.63 0.66 0.71 0.72 0.70
1.70 1.77 1.79 1.79 1.84 1.92 1.80 1.75 1.80 1.86 1.90 1.85 1.80 1.89 1.79 1.57 1.40 1.25 1.10 1.01 0.92 0.76 0.78 0.80 0.75 0.66 0.60 0.55 0.53 0.53 0.57 0.57 0.56 0.58 0.59 0.62 0.69 0.75
1.68 1.65 1.71 1.89 1.97 1.98 1.82 1.82 1.92 1.91 1.87 1.89 1.86 1.95 1.95 1.78 1.51 1.27 1.17 1.13 1.06 0.91 0.84 0.73 0.71 0.67 0.64 0.64 0.63 0.60 0.56 0.57 0.57 0.56 0.58 0.62 0.67 0.79
1.64 1.57 1.50 1.55 1.65 1.72 1.67 1.61 1.65 1.71 1.77 1.78 1.80 1.85 1.88 1.78 1.60 1.42 1.29 1.18 1.14 1.10 1.12 1.06 0.93 0.90 0.78 0.69 0.73 0.71 0.67 0.64 0.62 0.62 0.63 0.64 0.69 0.79
1.34 1.32 1.16 1.09 1.30 1.37 1.51 1.50 1.40 1.37 1.40 1.52 1.64 1.66 1.79 1.83 1.78 1.58 1.50 1.41 1.25 1.22 1.26 1.27 1.18 1.05 0.87 0.83 0.91 0.80 0.76 0.74 0.74 0.73 0.70 0.66 0.63 0.64
1.14 1.11 1.10 1.09 1.13 1.22 1.29 1.30 1.26 1.21 1.20 1.22 1.33 1.51 1.68 1.83 1.84 1.74 1.69 1.57 1.38 1.27 1.26 1.29 1.21 1.12 0.98 0.93 0.98 0.89 0.82 0.79 0.77 0.81 0.88 0.85 0.69 0.61
1.18 1.21 1.21 1.11 1.16 1.12 1.11 1.14 1.15 1.19 1.19 1.19 1.22 1.39 1.58 1.70 1.83 1.79 1.72 1.60 1.43 1.29 1.22 1.19 1.16 1.19 1.13 1.00 0.91 0.86 0.73 0.66 0.63 0.64 0.77 1.00 1.08 0.89
1.30 1.25 1.19 1.06 1.01 0.96 0.96 1.04 1.02 1.03 1.11 1.14 1.15 1.25 1.39 1.52 1.68 1.65 1.55 1.55 1.41 1.27 1.14 1.13 1.11 1.14 1.18 1.03 0.87 0.75 0.67 0.63 0.60 0.61 0.76 1.08 1.23 1.08
1.30 1.25 1.20 1.10 0.94 0.89 0.84 0.87 0.90 0.95 1.02 1.07 1.16 1.28 1.42 1.55 1.56 1.55 1.53 1.42 1.34 1.15 0.96 1.03 1.02 0.97 0.94 0.88 0.78 0.72 0.65 0.60 0.58 0.60 0.68 0.92 1.17 1.12
1.46 1.37 1.30 1.16 0.94 0.87 0.78 0.80 0.83 0.82 0.93 1.03 1.09 1.19 1.31 1.45 1.55 1.61 1.61 1.48 1.29 1.16 1.07 1.07 1.03 0.98 0.89 0.79 0.72 0.67 0.68 0.63 0.60 0.59 0.60 0.74 0.86 1.10
1.48 1.55 1.40 1.23 1.05 0.92 0.91 0.88 0.82 0.77 0.90 1.01 1.01 1.05 1.12 1.26 1.52 1.72 1.81 1.73 1.46 1.18 1.06 1.00 0.93 0.91 0.90 0.77 0.64 0.59 0.62 0.65 0.62 0.62 0.63 0.66 0.77 0.97
1.50 1.55 1.43 1.30 1.13 0.99 0.96 0.86 0.77 0.75 0.82 0.92 1.00 1.06 1.17 1.26 1.40 1.56 1.74 1.78 1.61 1.23 1.03 0.97 0.91 0.92 0.88 0.77 0.67 0.58 0.54 0.59 0.63 0.67 0.74 0.78 0.88 1.00
1.57 1.64 1.58 1.46 1.35 1.21 1.11 1.05 0.99 0.95 0.90 0.91 1.03 1.09 1.14 1.15 1.21 1.34 1.54 1.64 1.50 1.16 0.96 0.94 0.98 1.00 0.98 0.96 0.83 0.65 0.59 0.56 0.59 0.70 0.82 0.84 0.87 0.90
1.37 1.53 1.52 1.42 1.34 1.30 1.26 1.20 1.14 1.07 1.00 0.99 1.02 1.06 1.07 1.09 1.15 1.24 1.35 1.44 1.39 1.20 1.02 0.91 0.99 1.07 1.03 0.96 0.82 0.69 0.62 0.61 0.63 0.75 0.81 0.80 0.76 0.78
1.08 1.26 1.27 1.23 1.21 1.23 1.20 1.11 1.03 1.04 1.06 1.03 0.98 1.02 1.08 1.10 1.13 1.21 1.26 1.36 1.40 1.35 1.20 1.05 1.01 1.01 0.91 0.74 0.66 0.62 0.63 0.65 0.70 0.74 0.77 0.76 0.70 0.68
0.90 1.04 1.08 1.10 1.12 1.17 1.16 1.15 1.11 1.12 1.13 1.09 1.07 1.09 1.16 1.20 1.19 1.21 1.28 1.31 1.35 1.36 1.32 1.16 1.00 0.92 0.83 0.72 0.66 0.59 0.55 0.60 0.69 0.70 0.71 0.75 0.72 0.70
0.93 1.00 1.04 1.05 1.08 1.15 1.16 1.16 1.16 1.18 1.17 1.17 1.17 1.18 1.25 1.31 1.22 1.16 1.20 1.26 1.22 1.25 1.21 1.08 0.97 1.00 1.02 1.01 0.82 0.62 0.58 0.57 0.60 0.66 0.72 0.77 0.74 0.74
1.00 1.00 1.06 1.08 1.08 1.09 1.11 1.11 1.13 1.17 1.17 1.18 1.23 1.26 1.26 1.27 1.19 1.15 1.15 1.19 1.15 1.11 1.12 1.17 1.27 1.28 1.18 1.06 0.85 0.71 0.70 0.68 0.66 0.65 0.63 0.64 0.64 0.61
1.01 1.01 1.03 1.00 1.00 1.02 1.04 1.05 1.13 1.16 1.16 1.16 1.20 1.25 1.25 1.22 1.17 1.16 1.14 1.15 1.19 1.20 1.27 1.34 1.41 1.35 1.18 1.06 0.93 0.84 0.82 0.81 0.77 0.72 0.66 0.59 0.51 0.46